Location: Artiguedieu
(43.5000°N, 0.5454°E)
Time: 01:02:19
(UTC+00:00)

SR - Pass Details

Date: 13 August 2021
Orbit: 581 x 874 km, 66.7° (Epoch: 24 September)

Event Time Altitude Azimuth Distance (km) Brightness Sun altitude
Exits shadow 04:00:53 13° 244° (WSW) 2,215 ? -10.5°
Maximum altitude 04:05:28 39° 309° (NW) 1,198 ? -9.8°
Drops below altitude 10° 04:10:28 10° 18° (NNE) 2,315 ? -9.0°
Sets 04:12:56 0° 26° (NNE) 3,196 ? -8.6°
